User: anonymous   Login
Location: *
(12.5665°N, 8.3471°E)
Time: 12:43:26
(UTC+00:00)
Language:

Meteor PRIRODA - Orbit

View from above orbital plane
View from above orbital plane
View from above satellite
View from above satellite

Ground track
Ground track

The orbit data is extracted from the following two-line orbital elements,

1 12585U 81065A   19325.59271625 +.00000506 +00000-0 +25621-4 0  9999
2 12585 097.5293 308.8200 0014482 172.2140 187.9323 15.21492133091346
Epoch (UTC): 21 November 2019 14:13:30
Eccentricity: 0.0014482
inclination: 97.5293°
perigee height: 491 km
apogee height: 511 km
right ascension of ascending node: 308.8200°
argument of perigee: 172.2140°
revolutions per day: 15.21492133
mean anomaly at epoch: 187.9323°
orbit number at epoch: 9134

The dashed part of the orbit path shows where the satellite is in the earth's shadow,  

DLR